Location: Choisy
(48.7685°N, 2.4187°E)
Time: 20:19:57
(UTC+00:00)

Orbus 7S? - Pass Details

Date: 24 October 2021
Orbit: 328 x 6409 km, 56.9° (Epoch: 01 November)

Event Time Altitude Azimuth Distance (km) Brightness Sun altitude
Rises 19:02:33 0° 306° (NW) 5,717 9.5 -23.5°
Reaches altitude 10° 19:07:29 10° 304° (NW) 3,778 8.4 -24.3°
Maximum altitude 19:15:18 56° 229° (SW) 900 4.4 -25.6°
Enters shadow 19:16:02 50° 191° (S) 895 4.2 -25.7°
